Flag for Greece Weather past 2 weeks in Athens, Greece

Now
73 °F

Clear.


Feels Like: 76 °F
Forecast: 70 / 86 °F
Wind: No wind

Location: Elefsis Airport

Current Time: Sep 2, 2014 at 1:11:13 AM

Latest Report: Sep 2, 2014 at 12:20 AM


Visibility: 10 mi

Pressure: 29.74 "Hg

Humidity: 65%

Dew point: 61 °F

Location of AthensLocation

Historic Weather in Athens — Graph

°F

Athens temperature yesterday

Maximum temperature yesterday: 90 °F (at 2:20 PM)
Minimum temperature yesterday: 68 °F (at 5:50 AM)
Average temperature yesterday: 78 °F

Past Weeks' High & Low Weather Summary

 TemperatureHumidityPressure
High104 °F (Aug 24, 2:50 PM)73% (Aug 28, 5:20 AM)30.01 "Hg (Aug 28, 5:20 AM)
Low68 °F (Aug 21, 6:20 AM)8% (Aug 24, 3:20 PM)29.74 "Hg (Aug 17, 10:20 PM)
Average83 °F42%29.88 "Hg
* Reported Aug 17 10:20 PM — Sep 1 10:50 PM, Athens, Weather by CustomWeather, © 2014

Note: Actual official high and low records may vary slightly from our data, if they occured in-between our weather recording intervals... More about our weather records

Advertising

Athens weather history for previous 24 hours

 ConditionsComfort  
Time TempWeatherWind HumidityBarometerVisibility
10:50 PM
Sep 1
77 °FClear.No wind57%29.77 "Hg10 mi
10:20 PM77 °FClear.No wind57%29.77 "Hg10 mi
9:50 PM77 °FClear.No wind57%29.77 "Hg10 mi
9:20 PM79 °FClear.No wind54%29.74 "Hg10 mi
8:50 PM79 °FSunny.No wind54%29.74 "Hg10 mi
8:20 PM79 °FSunny.8 mph54%29.74 "Hg10 mi
7:50 PM81 °FSunny.8 mph58%29.74 "Hg10 mi
6:50 PM82 °FPassing clouds.14 mph51%29.74 "HgN/A
6:20 PM82 °FPassing clouds.13 mph51%29.74 "HgN/A
5:50 PM84 °FPassing clouds.15 mph48%29.74 "HgN/A
5:20 PM84 °FPassing clouds.15 mph51%29.74 "HgN/A
4:50 PM86 °FPassing clouds.15 mph46%29.74 "HgN/A
4:20 PM86 °FPassing clouds.15 mph46%29.74 "HgN/A
3:50 PM86 °FPassing clouds.15 mph40%29.74 "HgN/A
3:20 PM88 °FPassing clouds.14 mph35%29.77 "HgN/A
2:50 PM88 °FPassing clouds.15 mph35%29.77 "HgN/A
2:20 PM90 °FPassing clouds.10 mph27%29.77 "HgN/A
1:50 PM88 °FPassing clouds.10 mph35%29.77 "HgN/A
1:20 PM86 °FPassing clouds.10 mph43%29.80 "HgN/A
12:50 PM86 °FPassing clouds.9 mph43%29.80 "HgN/A
12:20 PM86 °FPassing clouds.7 mph43%29.80 "HgN/A
11:50 AM86 °FPassing clouds.6 mph33%29.80 "HgN/A
11:20 AM84 °FPassing clouds.No wind37%29.80 "HgN/A
10:50 AM84 °FPassing clouds.No wind40%29.83 "HgN/A
10:20 AM82 °FSunny.No wind42%29.83 "Hg10 mi
9:20 AM81 °FSunny.No wind42%29.83 "Hg10 mi
8:50 AM79 °FSunny.No wind42%29.83 "Hg10 mi
7:50 AM70 °FClear.5 mph53%29.83 "Hg10 mi
7:20 AM68 °FClear.3 mph56%29.83 "Hg10 mi
6:50 AM68 °FClear.5 mph56%29.83 "Hg10 mi
6:20 AM68 °FClear.7 mph56%29.80 "Hg10 mi
5:50 AM68 °FClear.No wind60%29.83 "Hg10 mi
5:20 AM70 °FClear.5 mph53%29.80 "Hg10 mi
4:50 AM70 °FClear.5 mph53%29.83 "Hg10 mi
4:20 AM70 °FClear.No wind57%29.83 "Hg10 mi
3:50 AM70 °FClear.6 mph57%29.83 "Hg10 mi
3:20 AM70 °FClear.5 mph57%29.83 "Hg10 mi
2:50 AM70 °FClear.5 mph60%29.83 "Hg10 mi
2:20 AM72 °FClear.No wind57%29.83 "Hg10 mi
1:50 AM72 °FClear.No wind57%29.83 "Hg10 mi
1:20 AM72 °FClear.5 mph57%29.86 "Hg10 mi
Weather by CustomWeather, © 2014

See weather overviewHow to use our weather pages